Location: Plainartige
(45.6866°N, 1.7993°E)
Time: 22:04:08
(UTC+00:00)

DIWATA 2B (PO-101) - Pass Details

Date: 06 July 2022
Orbit: 583 x 599 km, 98.0° (Epoch: 07 August)

Event Time Altitude Azimuth Distance (km) Brightness Sun altitude
Exits shadow 00:45:00 11° 116° (ESE) 1,864 ? -20.8°
Maximum altitude 00:48:06 23° 65° (ENE) 1,282 ? -20.6°
Drops below altitude 10° 00:51:27 10° 13° (NNE) 1,949 ? -20.5°
Sets 00:53:57 0° 359° (N) 2,855 ? -20.4°
